Weather History for Acapulco, Mexico

Change the Weather History Date:

Monday, June 20, 2011

  Actual Average Record
Temperature  
Mean Temperature 83 °F -  
Max Temperature 91 °F 91 °F 96 °F (2014)
Min Temperature 75 °F 76 °F 68 °F (2005)
Cooling Degree Days 18    
Growing Degree Days 33 (Base 50)    
Moisture  
Dew Point 72 °F    
Average Humidity 87    
Maximum Humidity 97    
Minimum Humidity 74    
Precipitation  
Precipitation 5.20 in 0.30 in - ()
Sea Level Pressure  
Sea Level Pressure 29.80 in    
Wind  
Wind Speed 11 mph ()    
Max Wind Speed 25 mph    
Max Gust Speed 25 mph    
Visibility 4.7 miles    
Events Rain , Thunderstorm    
Averages and records for this station are not official NWS values.
T = Trace of Precipitation, MM = Missing Value Source: Averaged Metar Reports

Daily Weather History Graph

Daily Weather History Graph

Search for Another Location

Airport:

Trip Planner

Search our weather history database for the weather conditions in past years. The results will help you decide how hot, cold, wet, or windy it might be!

Date:

Astronomy

Jun. 20, 2011 Rise Set
Actual Time 7:06 AM CDT 8:14 PM CDT
Civil Twilight 6:42 AM CDT 8:38 PM CDT
Nautical Twilight 6:14 AM CDT 9:06 PM CDT
Astronomical Twilight 5:45 AM CDT 9:35 PM CDT
Moon No Moon Rise 11:28 AM CDT (6/20)
Length of Visible Light 13h 55m
Length of Day
13h 07m
Waning Gibbous, 76% of the Moon is Illuminated
Jun 20
Waning Gibbous
Jun 23
Last Quarter
Jul 1
New
Jul 8
First Quarter
Jul 15
Full

Hourly Weather History & Observations

Time (CDT) Temp. Heat Index Dew Point Humidity Pressure Visibility Wind Dir Wind Speed Gust Speed Precip Events Conditions
12:40 AM 77 °F - 76 °F 97% 29.86 in 6 mi ENE 11.2 mph - - Rain Rain
12:45 AM 77.0 °F - 71.6 °F 83% 29.85 in 1.0 mi ENE 17.3 mph - N/A Rain , Thunderstorm Thunderstorms and Rain
1:45 AM 77.0 °F - 71.6 °F 83% 29.81 in 3.0 mi ENE 13.8 mph 25.3 mph N/A Rain Light Rain
2:45 AM 77.0 °F - 71.6 °F 83% 29.79 in 3.0 mi ENE 17.3 mph - N/A Rain Light Rain
3:40 AM 77 °F - 76 °F 95% 29.80 in 6 mi ENE 8.9 mph - -   Partly Cloudy
3:45 AM 77.0 °F - 71.6 °F 83% 29.77 in 7.0 mi NE 15.0 mph - N/A   Overcast
4:54 AM 78.8 °F - 71.6 °F 78% 29.74 in 5.0 mi NE 8.1 mph - N/A Rain Light Rain
5:54 AM 77.0 °F - 71.6 °F 83% 29.74 in 5.0 mi North 4.6 mph - N/A Rain Light Rain
6:00 AM 77.0 °F - 71.6 °F 83% 29.74 in 5.0 mi North 4.6 mph - N/A Rain Light Rain
6:40 AM 77 °F - 76 °F 95% 29.76 in 6 mi ENE 6.7 mph - - Rain Light Drizzle
6:45 AM 78.8 °F - 71.6 °F 78% 29.74 in 5.0 mi ENE 9.2 mph - N/A Rain Light Rain
7:43 AM 77.0 °F - 71.6 °F 83% 29.76 in 4.0 mi ENE 13.8 mph - N/A Rain Light Rain
8:42 AM 77.0 °F - 75.2 °F 94% 29.78 in 4.0 mi ENE 9.2 mph - N/A Rain Light Rain
9:40 AM 77 °F - 75 °F 91% 29.83 in 11 mi ENE 8.9 mph - - Rain Rain
9:47 AM 77.0 °F - 75.2 °F 94% 29.80 in 5.0 mi NE 13.8 mph - N/A   Overcast
10:45 AM 77.0 °F - 69.8 °F 78% 29.81 in 4.0 mi ENE 15.0 mph - N/A Rain Rain
11:45 AM 75.2 °F - 73.4 °F 94% 29.79 in 4.0 mi ENE 13.8 mph - N/A Rain Light Rain
12:44 PM 77.0 °F - 73.4 °F 89% 29.76 in 5.0 mi ENE 13.8 mph - N/A   Overcast
12:50 PM 76 °F - 75 °F 97% 29.81 in 11 mi East 11.2 mph - - Rain Light Rain
1:25 PM 77.0 °F - 75.2 °F 94% 29.79 in 3.0 mi ENE 8.1 mph - N/A Rain Rain
1:44 PM 77.0 °F - 75.2 °F 94% 29.78 in 4.0 mi ENE 11.5 mph - N/A   Overcast
2:53 PM 80.6 °F 84.6 °F 71.6 °F 74% 29.76 in 3.0 mi East 23.0 mph - N/A Rain Rain
3:42 PM 78.8 °F - 71.6 °F 78% 29.76 in 1.0 mi East 25.3 mph - N/A Rain Rain Showers
3:45 PM 78 °F - 76 °F 94% 29.80 in 11 mi East 11.2 mph - - Rain Rain
3:58 PM 77.0 °F - 71.6 °F 83% 29.77 in 2.0 mi NE 23.0 mph - N/A Rain Heavy Rain
4:12 PM 77.0 °F - 69.8 °F 78% 29.77 in 0.5 mi West 24.2 mph - N/A Rain Rain Showers
4:26 PM 77.0 °F - 69.8 °F 78% 29.77 in 0.3 mi West 24.2 mph - N/A Rain Rain Showers
4:44 PM 75.2 °F - 71.6 °F 89% 29.77 in 1.5 mi ENE 8.1 mph - N/A Rain Heavy Rain
4:55 PM 75.2 °F - 71.6 °F 89% 29.76 in 0.2 mi North 12.7 mph - N/A Rain Rain Showers
5:22 PM 75.2 °F - 69.8 °F 83% 29.79 in 3.0 mi WNW 13.8 mph - N/A Rain Rain
5:42 PM 75.2 °F - 69.8 °F 83% 29.80 in 3.0 mi WNW 6.9 mph - N/A Rain Rain
6:45 PM 76 °F - 75 °F 94% 29.84 in 11 mi WNW 2.2 mph - - Rain Rain
6:45 PM 75.2 °F - 71.6 °F 89% 29.81 in 3.0 mi North 9.2 mph - N/A Rain Rain
7:45 PM 75.2 °F - 71.6 °F 89% 29.82 in 4.0 mi NNE 6.9 mph - N/A Rain Light Rain
8:45 PM 75.2 °F - 71.6 °F 89% 29.83 in 4.0 mi ENE 8.1 mph - N/A Rain Rain
9:46 PM 75.2 °F - 69.8 °F 83% 29.86 in 5.0 mi NE 5.8 mph - N/A Rain Light Rain
10:43 PM 75.2 °F - 69.8 °F 83% 29.87 in 5.0 mi NNE 5.8 mph - N/A Rain Light Rain
10:50 PM 76 °F - 74 °F 94% 29.86 in 12 mi NE 4.5 mph - - Rain Rain
11:43 PM 75.2 °F - 69.8 °F 83% 29.87 in 5.0 mi NE 9.2 mph - N/A Rain Light Rain